Overview Statistics Trail Chart Weather Telemetry Raw packets
 

This is the latest recevied weather packets stored in our database for station/object VU3OPZ-13. If no packets are shown the sender has not sent any weather packets the latest 10 day(s).

<< 15 16 17 18 >>
Time Temp. Humidity Pressure Rain* Wind** Luminosity Snow
1787604098 22.22° C 87% 1009 hPa 0 mm - - -
1787602294 22.78° C 86% 1010 hPa 0 mm - - -
1787600489 22.78° C 86% 1010 hPa 0 mm - - -
1787598685 22.78° C 85% 1010 hPa 0 mm - - -
1787596880 22.78° C 85% 1010 hPa 0 mm - - -
1787595076 22.78° C 83% 1011 hPa 0 mm - - -
1787593271 22.78° C 83% 1011 hPa 0 mm - - -
1787591466 23.33° C 82% 1011 hPa 0 mm - - -
1787589663 23.33° C 81% 1011 hPa 0 mm - - -
1787587858 23.33° C 80% 1011 hPa 0 mm - - -
1787586054 23.33° C 80% 1011 hPa 0 mm - - -
1787584250 23.89° C 80% 1011 hPa 0 mm - - -
1787582446 23.89° C 80% 1011 hPa 0 mm - - -
1787580642 24.44° C 79% 1010 hPa 0 mm - - -
1787577033 25.56° C 74% 1009 hPa 0 mm - - -
1787575227 25.56° C 74% 1009 hPa 0 mm - - -
1787573423 26.67° C 66% 1008 hPa 0 mm - - -
1787570163 27.78° C 62% 1008 hPa 0 mm - - -
1787568357 27.78° C 62% 1008 hPa 0 mm - - -
1787566553 28.33° C 59% 1007 hPa 0 mm - - -
1787564748 28.33° C 59% 1007 hPa 0 mm - - -
1787562944 28.89° C 58% 1007 hPa 0 mm - - -
1787561139 28.89° C 57% 1007 hPa 0 mm - - -
1787559332 28.89° C 58% 1008 hPa 0 mm - - -
1787557528 28.89° C 57% 1008 hPa 0 mm - - -

* Rain latest hour (hover to see other rain measurements)
** Current wind speed in m/s (hover to see current wind gust speed)